Regional Weather Roundup
Issued by NWS

Home | Current Version | Previous Version | Text Only | Print | Product List | Glossary On
Versions: 1 2 3 4 5 6 7 8 9 10 11 12 13 14 15 16 17 18 19 20 21 22 23 24 25 26 27 28 29 30 31 32 33 34 35 36 37 38 39 40 41 42 43 44 45 46 47 48 49 50
000
ASUS43 KBIS 041410
RWRND

NORTH DAKOTA REGIONAL WEATHER ROUNDUP
NATIONAL WEATHER SERVICE BISMARCK ND
900 AM CDT FRI SEP 04 2015

NOTE: "FAIR" INDICATES FEW OR NO CLOUDS BELOW 12,000 FEET WITH NO
SIGNIFICANT WEATHER AND/OR OBSTRUCTIONS TO VISIBILITY.


NDZ001>003-009>011-017-041500-
NORTHWEST NORTH DAKOTA

CITY           SKY/WX    TMP DP  RH WIND       PRES   REMARKS
WILLISTON      CLOUDY    63  55  75 NW12      29.86R
MINOT          CLOUDY    67  59  75 N21G28    29.77R
MINOT AFB      DRIZZLE   66  61  84 N16G26    29.75F
$$

NDZ018>021-031>035-040>046-041500-
SOUTHWEST NORTH DAKOTA

CITY           SKY/WX    TMP DP  RH WIND       PRES   REMARKS
BISMARCK       CLOUDY    72  70  93 E3        29.74S
DICKINSON      CLOUDY    65  60  84 N16       29.77F
GARRISON         N/A     70  67  90 NE6       29.79R
HETTINGER ARPT CLOUDY    66  62  87 E8        29.82R
$$

NDZ004>008-012>016-024-026-027-054-041500-
NORTHEAST NORTH DAKOTA

CITY           SKY/WX    TMP DP  RH WIND       PRES   REMARKS
GRAND FORKS    CLOUDY    74  70  87 SE14      29.76F
GRND FRKS AFB  CLOUDY    74  71  90 S10       29.77F
DEVILS LAKE    CLOUDY    75  66  73 SE9       29.77R
$$

NDZ022-023-025-028>030-036>039-047>053-041500-
SOUTHEAST NORTH DAKOTA

CITY           SKY/WX    TMP DP  RH WIND       PRES   REMARKS
FARGO          MOSUNNY   78  72  81 SE10G21   29.77R
JAMESTOWN      CLOUDY    75  72  90 E9        29.73F
$$



USA.gov is the U.S. government's official web portal to all federal, state and local government web resources and services.